OREBRO PRIVATE current weather conditions

sailwx.info

Wind from 160 at 14 knots

Air temperature 2.0° C
Visibility: greater than 4.9 NM
Dewpoint 1.0° C
Present weather: Light rain snow.

Last reported at 2015-Jan-28 22:20 UTC.
Time now 2015-Jan-29 00:22 UTC

Location: N 59°14' E 015°03'.
View on Google Maps.

See reports from other nearby stations

  
Tides and Currents Weather Stations Pressure Air Temp Water Temp Dewpoint Dewpoint Depression Visibility Wind Speed Wind Dir Waves Ship Positions
date/time (UTC)wind fromknots sea level pressurealtimeterstation pressurevisibilityair tempwater tempwave heightnotes
2015-Jan-28 23:20 150 11 5.4 2.0 Light rain.
2015-Jan-28 22:50 160 12 5.4 2.0 Light rain snow.
2015-Jan-28 22:20 160 14 4.9 2.0 Light rain snow.
2015-Jan-28 21:50 180 13 5.4 3.0 Light rain snow.
2015-Jan-28 21:20 160 14 5.4 3.0
2015-Jan-28 20:50 170 14 5.4 2.0
2015-Jan-28 20:20 150 11 5.4 2.0
2015-Jan-28 19:50 170 12 5.4 3.0
2015-Jan-28 19:20 170 10 5.4 3.0
2015-Jan-28 18:50 160 11 5.4 3.0
2015-Jan-28 18:20 170 10 5.4 3.0
2015-Jan-28 17:50 170 11 5.4 3.0
2015-Jan-28 17:20 160 12 5.4 3.0
2015-Jan-28 16:50 180 14 5.4 3.0
2015-Jan-28 16:20 190 13 5.4 3.0
2015-Jan-28 15:50 190 13 5.4 3.0
2015-Jan-28 15:20 190 14 3.8 3.0 Light drizzle.
2015-Jan-28 14:50 190 12 5.4 3.0
2015-Jan-28 14:20 190 13 5.4 3.0
2015-Jan-28 13:50 190 14 5.4 3.0
2015-Jan-28 13:20 190 12 5.4 3.0
2015-Jan-28 12:50 190 12 5.4 3.0
2015-Jan-28 12:20 190 13 5.4 3.0
2015-Jan-28 11:50 190 13 5.4 3.0
2015-Jan-28 11:20 210 13 5.4 3.0 Light rain.
2015-Jan-28 10:50 200 13 5.4 3.0 Light rain.
2015-Jan-28 10:20 200 14 5.4 3.0 Drizzle.
2015-Jan-28 09:50 210 12 5.4 3.0 Drizzle.
2015-Jan-28 09:20 210 13 5.4 3.0 Light drizzle.
2015-Jan-28 08:50 220 14 5.4 3.0 Drizzle.
2015-Jan-28 08:20 210 13 2.7 3.0 Drizzle.
2015-Jan-28 07:50 210 13 3.2 3.0 Drizzle.
2015-Jan-28 07:20 210 14 5.4 3.0 Drizzle.
2015-Jan-28 06:50 220 14 4.3 3.0 Drizzle.
2015-Jan-28 06:20 220 11 1.6 3.0 Light rain.
2015-Jan-28 05:50 210 11 1.6 3.0 Mist.
2015-Jan-28 05:20 210 11 1.3 2.0 Mist.
2015-Jan-28 04:50 210 12 1.1 2.0 Light drizzle.
2015-Jan-28 04:20 210 11 1.5 3.0 Mist.
2015-Jan-28 03:50 220 11 1.1 2.0 Mist.
2015-Jan-28 03:20 210 10 1.1 2.0 Mist.
2015-Jan-28 02:50 210 10 1.1 1.0 Mist.
2015-Jan-28 02:20 210 10 1.3 1.0 Mist.
2015-Jan-28 01:50 190 10 5.4 1.0
2015-Jan-28 01:20 210 9 5.4-0.0
2015-Jan-28 00:50 210 8 5.4-1.0
2015-Jan-28 00:20 210 7 5.4-2.0
2015-Jan-27 23:50 200 8 -1.0
2015-Jan-27 23:20 200 9 -1.0
2015-Jan-27 22:50 190 9 -1.0
2015-Jan-27 21:50 210 10 5.4-0.0
2015-Jan-27 21:20 210 10 5.4-0.0
2015-Jan-27 20:50 210 9 4.3
2015-Jan-27 20:20 230 9 5.4-0.0
2015-Jan-27 19:50 230 12 5.4-0.0
2015-Jan-27 19:20 230 12 5.4-0.0
2015-Jan-27 18:50 220 9 5.4-0.0
2015-Jan-27 18:20 230 8 5.4-0.0
2015-Jan-27 17:50 250 9 5.4-0.0
2015-Jan-27 17:20 230 8 5.4-0.0 Mist.
2015-Jan-27 16:50 220 8 2.7-0.0 Mist.
2015-Jan-27 16:20 220 8 2.7-0.0 Mist.
2015-Jan-27 15:50 230 7 5.4-1.0
2015-Jan-27 15:20 220 7 5.4-0.0
2015-Jan-27 14:50 230 6 5.4-0.0
2015-Jan-27 14:20 250 7 5.4 1.0
2015-Jan-27 13:50 270 7 5.4 2.0
2015-Jan-27 13:20 240 5 2.0
2015-Jan-27 12:50 240 4 2.0
2015-Jan-27 12:20 260 5 2.0
2015-Jan-27 11:50 260 4 2.0
2015-Jan-27 11:20 260 4 2.0
2015-Jan-27 10:50 270 5 1.0
2015-Jan-27 10:20 220 3 1.0
2015-Jan-27 09:50 5.4 2.0
2015-Jan-27 09:20 360 5 5.4 1.0
2015-Jan-27 08:50 360 5 5.4 1.0
2015-Jan-27 08:20 350 7 5.4 1.0
2015-Jan-27 07:50 340 8 5.4 1.0
2015-Jan-27 07:20 330 6 5.4 1.0
2015-Jan-27 06:50 340 9 5.4 1.0
2015-Jan-27 06:20 340 8 5.4 1.0
2015-Jan-27 05:50 320 6 5.4 1.0
2015-Jan-27 05:20 330 7 5.4-0.0
2015-Jan-27 04:50 320 5 -0.0
2015-Jan-27 04:20 340 4 5.4-0.0
2015-Jan-27 03:50 340 4 5.4-0.0
2015-Jan-27 03:20 350 6 5.4 1.0
2015-Jan-27 02:50 010 6 5.4 1.0
2015-Jan-27 02:20 330 5 2.2 1.0
2015-Jan-27 01:50 320 4 0.5 1.0
2015-Jan-27 01:20 320 2 0.2 1.0 Fog.
2015-Jan-27 00:50 0.3 1.0 Fog.
2015-Jan-27 00:20 020 3 0.4 1.0 Light rain snow.